Voltar ao catálogo

ASTROCAST-0402

AtivoComunicaçõesSSO
NORAD 55109·PAYLOAD·🇨🇭 Switzerland

Lançado Jan 3, 2023 de Cape Canaveral Space Force Station

Loading…

Próximas Passagens (próximas 24 horas)

TLE

AtualizadoSource: Space-Track

Época: Sep 14, 2026, 05:08 UTC

1 55109U 23001DE  26257.21423326  .00009662  00000-0  32909-3 0  9990
2 55109  97.5574 351.8619 0003062 281.8763  78.2134 15.30608385158141

Acompanhe ASTROCAST-0402 em tempo real com AllMySat

Download on the App Store